Regional Weather Roundup
Issued by NWS

Home | Current Version | Previous Version | Graphics & Text | Print | Product List | Glossary On
Versions: 1 2 3 4 5 6 7 8 9 10 11 12 13 14 15 16 17 18 19 20 21 22 23 24 25 26 27 28 29 30 31 32 33 34 35 36 37 38 39 40 41 42 43 44 45 46 47 48 49 50
000
ASUS43 KLMK 222202
RWRKY
KENTUCKY REGIONAL WEATHER ROUNDUP
NATIONAL WEATHER SERVICE LOUISVILLE KY
600 PM EDT TUE AUG 22 2017

NOTE "FAIR" INDICATES FEW OR NO CLOUDS BELOW 12,000 FEET
WITH NO SIGNIFICANT WEATHER AND/OR OBSTRUCTIONS TO VISIBILITY.

KYZ001>023-026-027-061>063-070>075-222300-
WESTERN AND SOUTH CENTRAL KENTUCKY

CITY           SKY/WX    TMP DP  RH WIND       PRES   REMARKS
PADUCAH        CLOUDY    81  71  71 N8        29.94F
HENDERSON      NOT AVBL
OWENSBORO      CLOUDY    76  73  91 NW3       29.96S
HOPKINSVILLE   HVY RAIN  73  73 100 NW13G22   29.95R FOG
BOWLING GREEN  CLOUDY    88  71  57 W12       29.93F HX  94
GLASGOW        CLOUDY    90  70  52 SW9       29.94S HX  95
$$

KYZ024-025-028>034-038-045-046-053-222300-
NORTH CENTRAL KENTUCKY

CITY           SKY/WX    TMP DP  RH WIND       PRES   REMARKS
LOUISVILLE/SDF LGT RAIN  73  70  90 W6        29.93F
LOUISVILLE/LOU LGT RAIN  73  72  96 CALM      29.93F FOG
FORT KNOX      LGT RAIN  72  70  94 W3        29.94R
$$

KYZ035>037-039>044-047>052-055>060-089>105-222300-
NORTHEAST KENTUCKY

CITY           SKY/WX    TMP DP  RH WIND       PRES   REMARKS
LEXINGTON      TSTM      74  69  85 W17G35    29.96R VSB 1/4
COVINGTON      CLOUDY    76  70  82 W7        29.92S
FRANKFORT      TSTM      73  69  87 NW17G28   29.93R VSB 1
$$

KYZ054-064>069-076>088-106>120-222300-
SOUTHEAST KENTUCKY

CITY           SKY/WX    TMP DP  RH WIND       PRES   REMARKS
JACKSON        CLOUDY    73  70  90 VRB5      29.97F
LONDON         MOSUNNY   77  72  84 S5        29.97F
SOMERSET       NOT AVBL
MIDDLESBORO    PTSUNNY   86  69  56 SW6       29.97F HX  90
MONTICELLO     MOCLDY    83  73  72 W10G18    29.98F
$$





USA.gov is the U.S. government's official web portal to all federal, state and local government web resources and services.